Location: Unspecified
(57.6483°N, 3.3184°W)
Time: 09:45:25
(UTC+00:00)

BlueWalker 3 - Pass Details

Date: 28 January 2026
Orbit: 450 x 461 km, 53.2° (Epoch: 11 February)

Event Time Altitude Azimuth Distance (km) Brightness Sun altitude
Rises 18:02:17 0° 236° (SW) 2,455 6.9 -12.0°
Reaches altitude 10° 18:04:33 10° 226° (SW) 1,583 5.5 -12.3°
Maximum altitude 18:07:44 31° 162° (SSE) 822 3.0 -12.7°
Enters shadow 18:09:44 18° 111° (ESE) 1,188 3.3 -13.0°
